| time (UTC) | temp C | wind direction | speed KPH | gust KPH | rain 1hr cm | rain 24hr cm | rain mn cm | humidity % | barometer mb |
| 20260904040150 | 9 | 207 | 0.0 | 1.6 | 0.00 | 0.48 | 0.48 | 95 | 1011.6 |
| 20260904035647 | 9 | 207 | 0.0 | 1.6 | 0.00 | 0.48 | 0.48 | 95 | 1011.6 |
| 20260904035404 | 9 | 207 | 0.0 | 1.6 | 0.00 | 0.48 | 0.48 | 94 | 1011.8 |
| 20260904034645 | 9 | 205 | 0.0 | 0.0 | 0.00 | 0.48 | 0.48 | 94 | 1011.7 |
| 20260904034138 | 9 | 205 | 0.0 | 0.0 | 0.00 | 0.48 | 0.48 | 94 | 1011.8 |
| 20260904033638 | 10 | 205 | 0.0 | 0.0 | 0.00 | 0.48 | 0.48 | 94 | 1011.9 |
| 20260904033138 | 10 | 205 | 0.0 | 0.0 | 0.00 | 0.48 | 0.48 | 94 | 1012.0 |
| 20260904032638 | 10 | 205 | 0.0 | 0.0 | 0.00 | 0.48 | 0.48 | 94 | 1012.1 |
| 20260904032141 | 10 | 205 | 0.0 | 0.0 | 0.00 | 0.48 | 0.48 | 94 | 1012.0 |
| 20260904031616 | 10 | 205 | 0.0 | 0.0 | 0.00 | 0.48 | 0.48 | 94 | 1011.9 |
| 20260904031113 | 10 | 205 | 0.0 | 1.6 | 0.00 | 0.48 | 0.48 | 94 | 1012.0 |
| 20260904030608 | 10 | 205 | 0.0 | 1.6 | 0.00 | 0.48 | 0.48 | 94 | 1012.0 |
| 20260904030104 | 10 | 205 | 0.0 | 0.0 | 0.00 | 0.48 | 0.48 | 93 | 1012.1 |
| 20260904025603 | 10 | 205 | 0.0 | 1.6 | 0.00 | 0.48 | 0.48 | 93 | 1012.1 |
| 20260904025049 | 11 | 205 | 0.0 | 1.6 | 0.00 | 0.48 | 0.48 | 93 | 1012.0 |
| 20260904024804 | 11 | 205 | 0.0 | 0.0 | 0.00 | 0.48 | 0.48 | 93 | 1012.1 |
| 20260904024256 | 11 | 205 | 0.0 | 0.0 | 0.00 | 0.48 | 0.48 | 93 | 1012.0 |
| 20260904023542 | 11 | 205 | 0.0 | 0.0 | 0.00 | 0.48 | 0.48 | 93 | 1012.0 |
| 20260904023039 | 11 | 205 | 0.0 | 0.0 | 0.00 | 0.48 | 0.48 | 94 | 1011.9 |
| 20260904022524 | 11 | 205 | 0.0 | 0.0 | 0.00 | 0.48 | 0.48 | 94 | 1011.9 |
| 20260904022019 | 11 | 205 | 0.0 | 0.0 | 0.00 | 0.48 | 0.48 | 94 | 1011.9 |
| 20260904021519 | 11 | 205 | 0.0 | 0.0 | 0.00 | 0.48 | 0.48 | 94 | 1011.9 |
| 20260904021009 | 12 | 205 | 0.0 | 0.0 | 0.00 | 0.48 | 0.48 | 94 | 1011.9 |
| 20260904020738 | 12 | 205 | 0.0 | 0.0 | 0.00 | 0.48 | 0.48 | 94 | 1012.0 |
| 20260904020010 | 12 | 205 | 0.0 | 1.6 | 0.00 | 0.48 | 0.48 | 94 | 1011.9 |
| 20260904015505 | 12 | 205 | 0.0 | 1.6 | 0.00 | 0.48 | 0.48 | 94 | 1012.0 |
| 20260904015005 | 12 | 205 | 0.0 | 3.2 | 0.00 | 0.48 | 0.48 | 95 | 1012.0 |
| 20260904014505 | 12 | 205 | 0.0 | 3.2 | 0.00 | 0.48 | 0.48 | 94 | 1011.9 |
| 20260904013956 | 12 | 205 | 0.0 | 0.0 | 0.00 | 0.48 | 0.48 | 94 | 1011.9 |
| 20260904013455 | 12 | 205 | 0.0 | 0.0 | 0.00 | 0.48 | 0.48 | 95 | 1011.9 |
| 20260904012936 | 12 | 205 | 0.0 | 0.0 | 0.00 | 0.48 | 0.48 | 94 | 1012.0 |
| 20260904012437 | 12 | 205 | 0.0 | 0.0 | 0.00 | 0.48 | 0.48 | 94 | 1011.9 |
| 20260904011936 | 12 | 205 | 0.0 | 0.0 | 0.00 | 0.48 | 0.48 | 94 | 1012.0 |
| 20260904011426 | 13 | 205 | 0.0 | 0.0 | 0.00 | 0.48 | 0.48 | 94 | 1012.1 |
| 20260904011408 | 13 | 205 | 0.0 | 0.0 | 0.00 | 0.48 | 0.48 | 94 | 1012.0 |
| 20260904010425 | 13 | 205 | 0.0 | 0.0 | 0.00 | 0.48 | 0.48 | 94 | 1011.9 |
| 20260904005913 | 13 | 205 | 0.0 | 0.0 | 0.00 | 0.51 | 0.48 | 94 | 1011.9 |
| 20260904005406 | 13 | 205 | 0.0 | 0.0 | 0.00 | 0.51 | 0.48 | 94 | 1012.0 |
| 20260904004906 | 13 | 205 | 0.0 | 0.0 | 0.00 | 0.51 | 0.48 | 94 | 1012.0 |
| 20260904004407 | 13 | 205 | 0.0 | 0.0 | 0.00 | 0.53 | 0.48 | 94 | 1012.1 |
| 20260904003903 | 13 | 205 | 0.0 | 0.0 | 0.00 | 0.53 | 0.48 | 94 | 1012.4 |
| 20260904003402 | 13 | 205 | 0.0 | 0.0 | 0.00 | 0.56 | 0.48 | 94 | 1012.2 |
| 20260904002847 | 13 | 205 | 0.0 | 0.0 | 0.00 | 0.56 | 0.48 | 94 | 1012.4 |
| 20260904002350 | 13 | 205 | 0.0 | 0.0 | 0.00 | 0.58 | 0.48 | 94 | 1012.5 |
| 20260904001847 | 13 | 205 | 0.0 | 0.0 | 0.00 | 0.58 | 0.48 | 94 | 1012.2 |
| 20260904001343 | 13 | 205 | 0.0 | 0.0 | 0.00 | 0.61 | 0.48 | 94 | 1012.2 |
| 20260904000842 | 13 | 205 | 0.0 | 0.0 | 0.00 | 0.64 | 0.48 | 94 | 1012.1 |
| 20260904000343 | 13 | 205 | 0.0 | 3.2 | 0.00 | 0.69 | 0.48 | 94 | 1012.1 |
| 20260903235844 | 13 | 205 | 0.0 | 3.2 | 0.00 | 0.71 | 0.48 | 95 | 1012.2 |
| 20260903235343 | 13 | 205 | 0.0 | 0.0 | 0.00 | 0.74 | 0.48 | 95 | 1012.1 |
| 20260903234839 | 13 | 205 | 0.0 | 0.0 | 0.00 | 0.81 | 0.48 | 94 | 1012.2 |
| 20260903234338 | 13 | 205 | 0.0 | 0.0 | 0.00 | 0.86 | 0.48 | 94 | 1012.1 |
| 20260903233839 | 13 | 205 | 0.0 | 0.0 | 0.00 | 0.89 | 0.48 | 94 | 1012.4 |
| 20260903233554 | 13 | 205 | 0.0 | 0.0 | 0.00 | 0.91 | 0.48 | 94 | 1012.2 |
| 20260903232834 | 13 | 205 | 0.0 | 0.0 | 0.00 | 0.97 | 0.48 | 94 | 1012.2 |
| 20260903232334 | 13 | 205 | 0.0 | 0.0 | 0.00 | 0.99 | 0.48 | 94 | 1012.1 |
| 20260903231829 | 13 | 205 | 0.0 | 0.0 | 0.00 | 1.02 | 0.48 | 94 | 1012.2 |
| 20260903231806 | 13 | 205 | 0.0 | 0.0 | 0.00 | 1.04 | 0.48 | 94 | 1012.4 |
| 20260903230826 | 13 | 205 | 0.0 | 4.8 | 0.00 | 1.04 | 0.48 | 92 | 1012.4 |
| 20260903230325 | 13 | 205 | 0.0 | 4.8 | 0.00 | 1.07 | 0.48 | 91 | 1012.2 |
| 20260903225820 | 14 | 153 | 0.0 | 0.0 | 0.00 | 1.09 | 0.48 | 94 | 1012.4 |
| 20260903225320 | 14 | 153 | 0.0 | 0.0 | 0.00 | 1.09 | 0.48 | 94 | 1012.1 |
| 20260903224822 | 14 | 153 | 0.0 | 0.0 | 0.00 | 1.09 | 0.48 | 94 | 1012.2 |
| 20260903224311 | 14 | 153 | 0.0 | 0.0 | 0.03 | 1.09 | 0.48 | 94 | 1012.2 |
| 20260903223815 | 14 | 153 | 0.0 | 1.6 | 0.03 | 1.12 | 0.48 | 94 | 1012.2 |
| 20260903223300 | 13 | 153 | 0.0 | 4.8 | 0.03 | 1.12 | 0.48 | 94 | 1012.1 |
| 20260903222802 | 13 | 138 | 0.0 | 4.8 | 0.03 | 1.14 | 0.48 | 94 | 1012.2 |
| 20260903222301 | 13 | 199 | 0.0 | 0.0 | 0.03 | 1.19 | 0.48 | 93 | 1012.1 |
| 20260903221800 | 13 | 199 | 0.0 | 1.6 | 0.03 | 1.22 | 0.48 | 93 | 1012.1 |
| 20260903221301 | 13 | 199 | 0.0 | 6.4 | 0.03 | 1.24 | 0.48 | 92 | 1012.1 |
| 20260903220753 | 13 | 199 | 0.0 | 6.4 | 0.03 | 1.27 | 0.48 | 94 | 1012.0 |
| 20260903220512 | 13 | 242 | 0.0 | 3.2 | 0.03 | 1.30 | 0.48 | 95 | 1012.0 |
| 20260903215747 | 13 | 242 | 0.0 | 6.4 | 0.03 | 1.35 | 0.48 | 95 | 1012.1 |
| 20260903215241 | 13 | 242 | 0.0 | 6.4 | 0.03 | 1.40 | 0.48 | 95 | 1012.1 |
| 20260903214737 | 13 | 315 | 0.0 | 0.0 | 0.03 | 1.47 | 0.48 | 96 | 1012.0 |
| 20260903214232 | 13 | 315 | 0.0 | 0.0 | 0.00 | 1.52 | 0.46 | 96 | 1012.1 |
| 20260903213952 | 12 | 315 | 0.0 | 0.0 | 0.03 | 1.55 | 0.46 | 95 | 1012.1 |
| 20260903213227 | 12 | 315 | 0.0 | 0.0 | 0.05 | 1.55 | 0.46 | 95 | 1012.1 |
| 20260903212728 | 12 | 315 | 0.0 | 0.0 | 0.08 | 1.55 | 0.46 | 95 | 1012.0 |
| 20260903212227 | 12 | 315 | 0.0 | 0.0 | 0.10 | 1.57 | 0.46 | 95 | 1012.2 |
| 20260903211727 | 12 | 315 | 0.0 | 0.0 | 0.10 | 1.57 | 0.46 | 95 | 1012.2 |
| 20260903211227 | 12 | 315 | 0.0 | 1.6 | 0.10 | 1.57 | 0.46 | 95 | 1012.2 |
| 20260903210723 | 12 | 315 | 0.0 | 1.6 | 0.10 | 1.57 | 0.46 | 95 | 1012.1 |
| 20260903210223 | 12 | 315 | 0.0 | 0.0 | 0.10 | 1.57 | 0.46 | 95 | 1012.1 |
| 20260903205712 | 12 | 315 | 0.0 | 3.2 | 0.10 | 1.57 | 0.46 | 94 | 1012.0 |
| 20260903205213 | 12 | 315 | 0.0 | 3.2 | 0.10 | 1.57 | 0.46 | 94 | 1012.0 |
| 20260903204703 | 12 | 316 | 0.0 | 0.0 | 0.15 | 1.57 | 0.46 | 94 | 1012.0 |
| 20260903204205 | 12 | 316 | 0.0 | 0.0 | 0.15 | 1.57 | 0.46 | 94 | 1012.0 |
| 20260903203703 | 12 | 316 | 0.0 | 0.0 | 0.15 | 1.55 | 0.43 | 94 | 1012.0 |
| 20260903203203 | 12 | 316 | 0.0 | 4.8 | 0.20 | 1.52 | 0.43 | 94 | 1012.2 |
| 20260903202701 | 12 | 316 | 1.6 | 4.8 | 0.23 | 1.50 | 0.38 | 94 | 1012.4 |
| 20260903202159 | 12 | 196 | 0.0 | 4.8 | 0.20 | 1.47 | 0.36 | 94 | 1012.4 |
| 20260903201659 | 12 | 199 | 0.0 | 0.0 | 0.20 | 1.47 | 0.36 | 94 | 1012.2 |
| 20260903201200 | 12 | 199 | 0.0 | 0.0 | 0.20 | 1.47 | 0.36 | 93 | 1012.4 |
| 20260903200654 | 12 | 199 | 0.0 | 0.0 | 0.20 | 1.47 | 0.36 | 92 | 1012.4 |
| 20260903200357 | 12 | 199 | 0.0 | 0.0 | 0.20 | 1.47 | 0.36 | 91 | 1012.6 |
| 20260903195634 | 12 | 199 | 0.0 | 0.0 | 0.20 | 1.47 | 0.36 | 90 | 1012.6 |
| 20260903195619 | 12 | 199 | 0.0 | 0.0 | 0.20 | 1.47 | 0.36 | 90 | 1012.7 |
| 20260903194851 | 13 | 199 | 0.0 | 0.0 | 0.15 | 1.42 | 0.30 | 90 | 1012.7 |
| 20260903194124 | 13 | 199 | 0.0 | 0.0 | 0.15 | 1.42 | 0.30 | 89 | 1012.6 |
| 20260903193625 | 13 | 199 | 0.0 | 0.0 | 0.10 | 1.37 | 0.28 | 89 | 1012.6 |
| 20260903193125 | 13 | 199 | 0.0 | 0.0 | 0.03 | 1.30 | 0.20 | 89 | 1012.6 |
| 20260903192625 | 13 | 199 | 0.0 | 8.0 | 0.00 | 1.27 | 0.15 | 87 | 1012.5 |
| 20260903192121 | 13 | 199 | 0.0 | 8.0 | 0.00 | 1.27 | 0.15 | 85 | 1012.6 |
| 20260903191615 | 13 | 246 | 0.0 | 4.8 | 0.00 | 1.27 | 0.15 | 85 | 1012.6 |
| 20260903191327 | 13 | 188 | 0.0 | 4.8 | 0.00 | 1.27 | 0.15 | 87 | 1012.7 |
| 20260903190556 | 13 | 188 | 0.0 | 0.0 | 0.00 | 1.27 | 0.15 | 87 | 1012.6 |
| 20260903190303 | 13 | 188 | 0.0 | 4.8 | 0.00 | 1.27 | 0.15 | 88 | 1012.6 |
| 20260903185542 | 13 | 188 | 0.0 | 4.8 | 0.00 | 1.27 | 0.15 | 87 | 1012.6 |
| 20260903185038 | 13 | 188 | 0.0 | 4.8 | 0.00 | 1.27 | 0.15 | 88 | 1012.6 |
| 20260903184535 | 13 | 145 | 0.0 | 4.8 | 0.00 | 1.27 | 0.15 | 89 | 1012.4 |
| 20260903184250 | 13 | 140 | 0.0 | 4.8 | 0.00 | 1.27 | 0.15 | 89 | 1012.4 |
| 20260903183524 | 13 | 145 | 1.6 | 4.8 | 0.00 | 1.27 | 0.15 | 91 | 1012.4 |
| 20260903183019 | 12 | 340 | 1.6 | 4.8 | 0.00 | 1.27 | 0.15 | 92 | 1012.2 |
| 20260903182517 | 12 | 223 | 0.0 | 3.2 | 0.00 | 1.27 | 0.15 | 93 | 1012.2 |
| 20260903182016 | 12 | 223 | 0.0 | 6.4 | 0.00 | 1.27 | 0.15 | 92 | 1012.4 |
| 20260903181518 | 12 | 231 | 1.6 | 11.3 | 0.00 | 1.27 | 0.15 | 92 | 1012.2 |
| 20260903181017 | 12 | 259 | 0.0 | 11.3 | 0.00 | 1.27 | 0.15 | 91 | 1012.2 |
| 20260903180738 | 12 | 247 | 0.0 | 6.4 | 0.00 | 1.27 | 0.15 | 92 | 1012.6 |
| 20260903180017 | 12 | 176 | 0.0 | 6.4 | 0.00 | 1.27 | 0.15 | 91 | 1012.6 |
| 20260903175512 | 12 | 176 | 1.6 | 6.4 | 0.00 | 1.27 | 0.15 | 92 | 1012.6 |
| 20260903174957 | 12 | 325 | 0.0 | 8.0 | 0.00 | 1.27 | 0.15 | 92 | 1012.6 |
| 20260903174453 | 12 | 171 | 1.6 | 11.3 | 0.00 | 1.27 | 0.15 | 93 | 1012.5 |
| 20260903173952 | 12 | 329 | 1.6 | 12.9 | 0.00 | 1.27 | 0.15 | 94 | 1012.6 |
| 20260903173454 | 12 | 317 | 3.2 | 12.9 | 0.00 | 1.27 | 0.15 | 95 | 1012.6 |
| 20260903173217 | 12 | 249 | 0.0 | 11.3 | 0.00 | 1.27 | 0.15 | 95 | 1012.5 |
| 20260903172448 | 12 | 218 | 0.0 | 14.5 | 0.00 | 1.27 | 0.15 | 95 | 1012.4 |
| 20260903171951 | 11 | 204 | 1.6 | 14.5 | 0.00 | 1.27 | 0.15 | 96 | 1012.4 |
| 20260903171715 | 12 | 169 | 3.2 | 12.9 | 0.03 | 1.27 | 0.15 | 97 | 1012.1 |
| 20260903170938 | 11 | 199 | 1.6 | 8.0 | 0.03 | 1.27 | 0.15 | 98 | 1012.1 |
| 20260903170429 | 11 | 145 | 3.2 | 8.0 | 0.03 | 1.27 | 0.15 | 98 | 1012.1 |
| 20260903165924 | 11 | 153 | 0.0 | 4.8 | 0.03 | 1.27 | 0.15 | 98 | 1012.0 |
| 20260903165424 | 11 | 138 | 0.0 | 4.8 | 0.03 | 1.27 | 0.15 | 98 | 1012.0 |
| 20260903164924 | 11 | 126 | 0.0 | 6.4 | 0.03 | 1.27 | 0.15 | 97 | 1011.9 |
| 20260903164415 | 11 | 92 | 1.6 | 6.4 | 0.03 | 1.27 | 0.15 | 98 | 1012.0 |
| 20260903163914 | 11 | 29 | 1.6 | 4.8 | 0.03 | 1.27 | 0.15 | 98 | 1011.9 |
| 20260903163416 | 11 | 25 | 0.0 | 0.0 | 0.03 | 1.27 | 0.15 | 98 | 1011.8 |
| 20260903162909 | 11 | 25 | 0.0 | 0.0 | 0.03 | 1.27 | 0.15 | 98 | 1011.8 |
| 20260903162356 | 10 | 25 | 0.0 | 0.0 | 0.03 | 1.27 | 0.15 | 98 | 1011.8 |
| 20260903161850 | 10 | 25 | 0.0 | 8.0 | 0.03 | 1.27 | 0.15 | 98 | 1011.8 |
| 20260903161351 | 10 | 25 | 0.0 | 8.0 | 0.00 | 1.24 | 0.13 | 98 | 1011.8 |
| 20260903160840 | 10 | 130 | 0.0 | 8.0 | 0.00 | 1.24 | 0.13 | 98 | 1011.8 |
| 20260903160552 | 10 | 44 | 0.0 | 8.0 | 0.00 | 1.24 | 0.13 | 98 | 1011.8 |
| 20260903160059 | 10 | 191 | 0.0 | 11.3 | 0.00 | 1.24 | 0.13 | 98 | 1011.8 |
| 20260903155335 | 10 | 109 | 0.0 | 11.3 | 0.00 | 1.24 | 0.13 | 98 | 1011.7 |
| 20260903154831 | 10 | 143 | 0.0 | 6.4 | 0.03 | 1.24 | 0.13 | 98 | 1011.6 |
| 20260903154327 | 10 | 143 | 1.6 | 6.4 | 0.03 | 1.24 | 0.13 | 98 | 1011.6 |
| 20260903153820 | 10 | 343 | 0.0 | 4.8 | 0.03 | 1.24 | 0.13 | 98 | 1011.6 |
| 20260903153322 | 10 | 223 | 0.0 | 9.7 | 0.03 | 1.24 | 0.13 | 98 | 1011.6 |
| 20260903152821 | 10 | 233 | 1.6 | 9.7 | 0.03 | 1.24 | 0.13 | 98 | 1011.5 |
| 20260903152311 | 10 | 11 | 0.0 | 4.8 | 0.03 | 1.24 | 0.13 | 98 | 1011.5 |
| 20260903151811 | 10 | 277 | 0.0 | 3.2 | 0.03 | 1.24 | 0.13 | 98 | 1011.5 |
| 20260903151312 | 10 | 309 | 0.0 | 4.8 | 0.05 | 1.24 | 0.13 | 98 | 1011.5 |
| 20260903150812 | 10 | 309 | 0.0 | 4.8 | 0.05 | 1.24 | 0.13 | 98 | 1011.5 |
| 20260903150307 | 10 | 263 | 0.0 | 0.0 | 0.08 | 1.24 | 0.13 | 98 | 1011.5 |
| 20260903145809 | 10 | 263 | 0.0 | 0.0 | 0.08 | 1.24 | 0.13 | 98 | 1011.5 |
| 20260903145518 | 10 | 263 | 0.0 | 1.6 | 0.08 | 1.22 | 0.10 | 98 | 1011.5 |
| 20260903145400 | 10 | 263 | 0.0 | 1.6 | 0.08 | 1.24 | 0.13 | 98 | 1011.5 |
| 20260903144253 | 10 | 263 | 0.0 | 0.0 | 0.08 | 1.22 | 0.10 | 98 | 1011.5 |
| 20260903143750 | 10 | 263 | 0.0 | 0.0 | 0.08 | 1.22 | 0.10 | 98 | 1011.5 |
| 20260903143248 | 10 | 263 | 0.0 | 0.0 | 0.08 | 1.22 | 0.10 | 98 | 1011.5 |
| 20260903142747 | 10 | 263 | 0.0 | 0.0 | 0.08 | 1.22 | 0.10 | 98 | 1011.4 |
| 20260903142247 | 10 | 263 | 0.0 | 1.6 | 0.10 | 1.22 | 0.10 | 98 | 1011.4 |
| 20260903141733 | 10 | 263 | 0.0 | 1.6 | 0.10 | 1.22 | 0.10 | 97 | 1011.4 |
| 20260903141233 | 9 | 262 | 0.0 | 0.0 | 0.08 | 1.19 | 0.08 | 97 | 1011.4 |
| 20260903140733 | 9 | 262 | 0.0 | 0.0 | 0.05 | 1.17 | 0.08 | 98 | 1011.4 |
| 20260903140233 | 9 | 262 | 0.0 | 0.0 | 0.05 | 1.17 | 0.05 | 98 | 1011.4 |
| 20260903135734 | 9 | 262 | 0.0 | 0.0 | 0.05 | 1.17 | 0.05 | 97 | 1011.4 |
| 20260903135448 | 9 | 262 | 0.0 | 0.0 | 0.05 | 1.17 | 0.05 | 97 | 1011.2 |
| 20260903134724 | 9 | 262 | 0.0 | 0.0 | 0.03 | 1.14 | 0.03 | 97 | 1011.4 |
| 20260903134223 | 9 | 262 | 0.0 | 0.0 | 0.03 | 1.14 | 0.03 | 97 | 1011.2 |
| 20260903134210 | 9 | 262 | 0.0 | 0.0 | 0.03 | 1.14 | 0.03 | 97 | 1011.1 |
| 20260903133215 | 9 | 262 | 0.0 | 0.0 | 0.03 | 1.14 | 0.03 | 97 | 1011.1 |
| 20260903132709 | 9 | 262 | 0.0 | 0.0 | 0.03 | 1.14 | 0.03 | 97 | 1011.1 |
| 20260903132205 | 9 | 262 | 0.0 | 0.0 | 0.00 | 1.12 | 0.00 | 97 | 1011.0 |
| 20260903131706 | 9 | 262 | 0.0 | 0.0 | 0.00 | 1.12 | 0.00 | 97 | 1011.0 |
| 20260903131155 | 9 | 262 | 0.0 | 0.0 | 0.00 | 1.12 | 0.00 | 97 | 1010.9 |
| 20260903130644 | 9 | 262 | 0.0 | 0.0 | 0.00 | 1.12 | 0.00 | 97 | 1010.9 |
| 20260903130146 | 9 | 262 | 0.0 | 0.0 | 0.00 | 1.12 | 0.00 | 97 | 1010.7 |
| 20260903125908 | 9 | 262 | 0.0 | 0.0 | 0.00 | 1.12 | 0.00 | 97 | 1010.7 |
| 20260903125146 | 9 | 262 | 0.0 | 0.0 | 0.00 | 1.12 | 0.00 | 97 | 1010.8 |
| 20260903124648 | 9 | 262 | 0.0 | 0.0 | 0.00 | 1.12 | 0.00 | 97 | 1010.6 |
| 20260903124144 | 9 | 262 | 0.0 | 0.0 | 0.00 | 1.12 | 0.00 | 97 | 1010.6 |
| 20260903123635 | 9 | 262 | 0.0 | 0.0 | 0.00 | 1.12 | 0.00 | 97 | 1010.5 |
| 20260903123137 | 9 | 262 | 0.0 | 0.0 | 0.00 | 1.12 | 0.00 | 97 | 1010.6 |
| 20260903122636 | 9 | 262 | 0.0 | 0.0 | 0.00 | 1.12 | 0.00 | 97 | 1010.5 |
| 20260903122135 | 9 | 262 | 0.0 | 0.0 | 0.00 | 1.12 | 0.00 | 97 | 1010.5 |
| 20260903121627 | 9 | 262 | 0.0 | 0.0 | 0.00 | 1.12 | 0.00 | 97 | 1010.5 |
| 20260903121127 | 9 | 262 | 0.0 | 0.0 | 0.00 | 1.12 | 0.00 | 97 | 1010.5 |
| 20260903120626 | 9 | 262 | 0.0 | 0.0 | 0.00 | 1.12 | 0.00 | 97 | 1010.7 |
| 20260903120119 | 9 | 262 | 0.0 | 0.0 | 0.00 | 1.12 | 0.00 | 97 | 1010.7 |
| 20260903115615 | 9 | 262 | 0.0 | 0.0 | 0.00 | 1.12 | 0.00 | 97 | 1010.7 |
| 20260903115111 | 9 | 262 | 0.0 | 0.0 | 0.00 | 1.12 | 0.00 | 97 | 1010.6 |
| 20260903114611 | 9 | 262 | 0.0 | 0.0 | 0.00 | 1.12 | 0.00 | 97 | 1010.6 |
| 20260903114112 | 9 | 262 | 0.0 | 0.0 | 0.00 | 1.12 | 0.00 | 97 | 1010.6 |
| 20260903113602 | 9 | 262 | 0.0 | 0.0 | 0.00 | 1.12 | 0.00 | 97 | 1010.6 |
| 20260903113540 | 9 | 262 | 0.0 | 0.0 | 0.00 | 1.12 | 0.00 | 97 | 1010.3 |
| 20260903112547 | 9 | 262 | 0.0 | 0.0 | 0.00 | 1.12 | 0.00 | 97 | 1010.3 |
| 20260903112043 | 9 | 262 | 0.0 | 0.0 | 0.00 | 1.12 | 0.00 | 97 | 1010.2 |
| 20260903111538 | 9 | 262 | 0.0 | 0.0 | 0.00 | 1.12 | 0.00 | 97 | 1010.2 |
| 20260903111038 | 9 | 262 | 0.0 | 0.0 | 0.00 | 1.12 | 0.00 | 97 | 1010.5 |
| 20260903110537 | 9 | 262 | 0.0 | 0.0 | 0.00 | 1.12 | 0.00 | 97 | 1010.7 |
| 20260903110034 | 9 | 262 | 0.0 | 0.0 | 0.00 | 1.12 | 0.00 | 97 | 1010.7 |
| 20260903105533 | 9 | 262 | 0.0 | 0.0 | 0.00 | 1.12 | 0.00 | 97 | 1010.8 |
| 20260903105252 | 9 | 262 | 0.0 | 0.0 | 0.00 | 1.12 | 0.00 | 97 | 1010.7 |
| 20260903104528 | 9 | 262 | 0.0 | 0.0 | 0.00 | 1.12 | 0.00 | 97 | 1010.7 |
| 20260903104014 | 9 | 262 | 0.0 | 0.0 | 0.00 | 1.12 | 0.00 | 97 | 1010.6 |
| 20260903103508 | 9 | 262 | 0.0 | 0.0 | 0.00 | 1.12 | 0.00 | 97 | 1010.6 |
| 20260903103004 | 9 | 262 | 0.0 | 0.0 | 0.00 | 1.12 | 0.00 | 97 | 1010.7 |
| 20260903102444 | 9 | 262 | 0.0 | 0.0 | 0.00 | 1.12 | 0.00 | 97 | 1010.5 |
| 20260903101938 | 9 | 262 | 0.0 | 0.0 | 0.00 | 1.12 | 0.00 | 97 | 1010.6 |
| 20260903101650 | 9 | 262 | 0.0 | 0.0 | 0.00 | 1.12 | 0.00 | 97 | 1010.5 |
| 20260903100923 | 9 | 262 | 0.0 | 0.0 | 0.00 | 1.12 | 0.00 | 97 | 1010.5 |
| 20260903100653 | 9 | 262 | 0.0 | 0.0 | 0.00 | 1.12 | 0.00 | 97 | 1010.3 |
| 20260903100133 | 8 | 262 | 0.0 | 0.0 | 0.00 | 1.12 | 0.00 | 97 | 1010.3 |
| 20260903095354 | 8 | 262 | 0.0 | 0.0 | 0.00 | 1.12 | 0.00 | 97 | 1010.2 |
| 20260903094853 | 8 | 262 | 0.0 | 0.0 | 0.00 | 1.12 | 0.00 | 97 | 1010.3 |
| 20260903094353 | 8 | 262 | 0.0 | 0.0 | 0.00 | 1.12 | 0.00 | 97 | 1010.3 |
| 20260903093857 | 8 | 262 | 0.0 | 0.0 | 0.00 | 1.12 | 0.00 | 97 | 1010.3 |
| 20260903093354 | 8 | 262 | 0.0 | 0.0 | 0.00 | 1.12 | 0.00 | 97 | 1010.3 |
| 20260903092844 | 8 | 262 | 0.0 | 0.0 | 0.00 | 1.12 | 0.00 | 97 | 1010.3 |
| 20260903092334 | 8 | 262 | 0.0 | 0.0 | 0.00 | 1.12 | 0.00 | 97 | 1010.5 |
| 20260903091829 | 8 | 262 | 0.0 | 0.0 | 0.00 | 1.12 | 0.00 | 97 | 1010.1 |
| 20260903091315 | 8 | 262 | 0.0 | 0.0 | 0.00 | 1.12 | 0.00 | 97 | 1010.2 |
| 20260903090814 | 8 | 262 | 0.0 | 0.0 | 0.00 | 1.12 | 0.00 | 97 | 1010.3 |
| 20260903090310 | 8 | 262 | 0.0 | 0.0 | 0.00 | 1.12 | 0.00 | 97 | 1010.3 |
| 20260903085811 | 8 | 262 | 0.0 | 0.0 | 0.00 | 1.12 | 0.00 | 97 | 1010.3 |
| 20260903085310 | 8 | 262 | 0.0 | 0.0 | 0.00 | 1.12 | 0.00 | 97 | 1010.5 |
| 20260903084816 | 8 | 262 | 0.0 | 0.0 | 0.00 | 1.12 | 0.00 | 97 | 1010.3 |
| 20260903084310 | 8 | 262 | 0.0 | 0.0 | 0.00 | 1.12 | 0.00 | 97 | 1010.5 |
| 20260903084030 | 8 | 262 | 0.0 | 0.0 | 0.00 | 1.12 | 0.00 | 97 | 1010.6 |
| 20260903083305 | 8 | 262 | 0.0 | 0.0 | 0.00 | 1.12 | 0.00 | 97 | 1010.6 |
| 20260903082812 | 8 | 262 | 0.0 | 0.0 | 0.00 | 1.12 | 0.00 | 96 | 1010.6 |
| 20260903082301 | 8 | 262 | 0.0 | 0.0 | 0.00 | 1.12 | 0.00 | 96 | 1010.5 |
| 20260903081803 | 8 | 262 | 0.0 | 0.0 | 0.00 | 1.12 | 0.00 | 96 | 1010.3 |
| 20260903081246 | 8 | 262 | 0.0 | 0.0 | 0.00 | 1.12 | 0.00 | 96 | 1010.3 |
| 20260903080736 | 8 | 262 | 0.0 | 0.0 | 0.00 | 1.12 | 0.00 | 96 | 1010.3 |
| 20260903080237 | 8 | 262 | 0.0 | 0.0 | 0.00 | 1.12 | 0.00 | 96 | 1010.3 |
| 20260903075734 | 8 | 262 | 0.0 | 0.0 | 0.00 | 1.12 | 0.00 | 96 | 1010.5 |
| 20260903075227 | 8 | 262 | 0.0 | 0.0 | 0.00 | 1.12 | 0.00 | 96 | 1010.5 |
| 20260903074717 | 8 | 262 | 0.0 | 0.0 | 0.00 | 1.12 | 0.00 | 96 | 1010.5 |
| 20260903074216 | 8 | 262 | 0.0 | 0.0 | 0.00 | 1.12 | 0.00 | 96 | 1010.2 |
| 20260903073717 | 8 | 262 | 0.0 | 0.0 | 0.00 | 1.12 | 0.00 | 96 | 1010.2 |
| 20260903073217 | 8 | 262 | 0.0 | 0.0 | 0.00 | 1.12 | 0.00 | 96 | 1010.1 |
| 20260903072657 | 8 | 262 | 0.0 | 0.0 | 0.00 | 1.12 | 0.00 | 95 | 1010.2 |
| 20260903072417 | 8 | 262 | 0.0 | 0.0 | 0.00 | 1.12 | 0.00 | 95 | 1010.1 |
| 20260903071658 | 8 | 262 | 0.0 | 0.0 | 0.00 | 1.12 | 0.00 | 95 | 1010.0 |
| 20260903071150 | 8 | 262 | 0.0 | 0.0 | 0.00 | 1.12 | 0.00 | 95 | 1010.1 |
| 20260903070648 | 8 | 262 | 0.0 | 0.0 | 0.00 | 1.12 | 0.00 | 95 | 1010.2 |
| 20260903070147 | 8 | 262 | 0.0 | 0.0 | 0.00 | 1.12 | 0.00 | 95 | 1010.2 |
| 20260903065648 | 8 | 262 | 0.0 | 0.0 | 0.00 | 1.12 | 0.00 | 95 | 1010.0 |
| 20260903065138 | 8 | 262 | 0.0 | 0.0 | 0.00 | 1.12 | 0.00 | 95 | 1009.9 |
| 20260903064903 | 8 | 262 | 0.0 | 0.0 | 0.00 | 1.12 | 0.00 | 95 | 1009.9 |
| 20260903064134 | 8 | 262 | 0.0 | 0.0 | 0.00 | 1.12 | 0.00 | 95 | 1010.1 |
| 20260903063628 | 8 | 262 | 0.0 | 0.0 | 0.00 | 1.12 | 0.00 | 95 | 1010.1 |
| 20260903063124 | 8 | 262 | 0.0 | 0.0 | 0.00 | 1.12 | 0.00 | 95 | 1010.2 |
| 20260903062627 | 8 | 262 | 0.0 | 0.0 | 0.00 | 1.12 | 0.00 | 95 | 1010.2 |
| 20260903062124 | 8 | 262 | 0.0 | 0.0 | 0.00 | 1.12 | 0.00 | 95 | 1010.2 |
| 20260903061619 | 8 | 262 | 0.0 | 0.0 | 0.00 | 1.12 | 0.00 | 95 | 1010.2 |
| 20260903061119 | 8 | 262 | 0.0 | 0.0 | 0.00 | 1.12 | 0.00 | 95 | 1010.2 |
| 20260903061059 | 8 | 262 | 0.0 | 0.0 | 0.00 | 1.12 | 0.00 | 95 | 1010.2 |
| 20260903060059 | 9 | 262 | 0.0 | 0.0 | 0.00 | 1.12 | 0.00 | 95 | 1010.3 |
| 20260903055559 | 9 | 262 | 0.0 | 0.0 | 0.00 | 1.12 | 1.12 | 95 | 1010.2 |
| 20260903055100 | 9 | 262 | 0.0 | 0.0 | 0.00 | 1.12 | 1.12 | 95 | 1010.3 |
| 20260903054600 | 9 | 262 | 0.0 | 0.0 | 0.00 | 1.12 | 1.12 | 95 | 1010.5 |
| 20260903054103 | 9 | 262 | 0.0 | 0.0 | 0.00 | 1.12 | 1.12 | 95 | 1010.5 |
| 20260903053601 | 9 | 262 | 0.0 | 0.0 | 0.00 | 1.12 | 1.12 | 95 | 1010.6 |
| 20260903053045 | 9 | 262 | 0.0 | 0.0 | 0.00 | 1.12 | 1.12 | 95 | 1010.7 |
| 20260903052543 | 10 | 262 | 0.0 | 0.0 | 0.00 | 1.12 | 1.12 | 95 | 1010.7 |
| 20260903052306 | 10 | 262 | 0.0 | 0.0 | 0.00 | 1.12 | 1.12 | 95 | 1010.7 |
| 20260903051536 | 10 | 262 | 0.0 | 0.0 | 0.00 | 1.12 | 1.12 | 95 | 1010.7 |
| 20260903051036 | 10 | 262 | 0.0 | 0.0 | 0.00 | 1.12 | 1.12 | 95 | 1010.8 |
| 20260903050531 | 10 | 262 | 0.0 | 0.0 | 0.00 | 1.12 | 1.12 | 96 | 1010.8 |
| 20260903050021 | 10 | 262 | 0.0 | 0.0 | 0.00 | 1.12 | 1.12 | 96 | 1011.0 |
| 20260903045521 | 10 | 262 | 0.0 | 0.0 | 0.00 | 1.12 | 1.12 | 96 | 1011.0 |
| 20260903045022 | 10 | 262 | 0.0 | 0.0 | 0.00 | 1.12 | 1.12 | 96 | 1011.0 |
| 20260903044524 | 10 | 262 | 0.0 | 0.0 | 0.00 | 1.12 | 1.12 | 96 | 1011.1 |
| 20260903044016 | 10 | 262 | 0.0 | 0.0 | 0.00 | 1.12 | 1.12 | 96 | 1011.2 |
| 20260903043516 | 10 | 262 | 0.0 | 0.0 | 0.00 | 1.12 | 1.12 | 96 | 1011.4 |
| 20260903043017 | 10 | 262 | 0.0 | 0.0 | 0.00 | 1.12 | 1.12 | 96 | 1011.4 |
| 20260903042742 | 10 | 262 | 0.0 | 0.0 | 0.00 | 1.12 | 1.12 | 96 | 1011.4 |
| 20260903042239 | 10 | 262 | 0.0 | 0.0 | 0.00 | 1.12 | 1.12 | 96 | 1011.6 |
| 20260903041503 | 10 | 262 | 0.0 | 0.0 | 0.00 | 1.12 | 1.12 | 95 | 1011.5 |
| 20260903040957 | 10 | 262 | 0.0 | 0.0 | 0.00 | 1.12 | 1.12 | 95 | 1011.5 |